Sanford, ME

5:05 AM EDT on April 25, 2018 (GMT -0400)
Sanford Regional

Weather History for KSFM - March, 2014

Change the Weather History Date:

Friday, March 7, 2014

  Actual Average Record
Temperature  
Mean Temperature 13 °F -  
Max Temperature 35 °F 35 °F 55 °F (2012)
Min Temperature -9 °F 18 °F -13 °F (2007)
Degree Days  
Heating Degree Days 52    
Moisture  
Dew Point 3 °F    
Average Humidity 53    
Maximum Humidity 100    
Minimum Humidity 24    
Precipitation  
Precipitation 0.00 in - - ()
Sea Level Pressure  
Sea Level Pressure 30.24 in    
Wind  
Wind Speed 3 mph (SSW)    
Max Wind Speed 12 mph    
Max Gust Speed 18 mph    
Visibility 10 miles    
Events      
Averages and records for this station are not official NWS values.
T = Trace of Precipitation, MM = Missing Value Source: NWS Daily Summary

Daily Weather History Graph

Daily Weather History Graph

Search for Another Location

Airport or City:

Astronomy

Mar. 07, 2014 Rise Set
Actual Time 6:09 AM EST 5:39 PM EST
Civil Twilight 5:40 AM EST 6:07 PM EST
Nautical Twilight 5:07 AM EST 6:40 PM EST
Astronomical Twilight 4:34 AM EST 7:14 PM EST
Moon 9:49 AM EST (3/7) No Moon Set
Length of Visible Light 12h 27m
Length of Day
11h 30m
Waxing Crescent, 42% of the Moon is Illuminated
Mar 7
Waxing Crescent
Mar 8
First Quarter
Mar 16
Full
Mar 23
Last Quarter
Mar 30
New

Hourly Weather History & Observations

Time (EST) Temp. Windchill Dew Point Humidity Pressure Visibility Wind Dir Wind Speed Gust Speed Precip Events Conditions
12:15 AM -0.4 °F - -11.2 °F 60% 30.47 in 10.0 mi Calm Calm - N/A   Clear
12:35 AM -0.4 °F - -7.6 °F 72% 30.47 in 10.0 mi Calm Calm - N/A   Clear
12:55 AM -2.2 °F - -9.4 °F 71% 30.46 in 10.0 mi Calm Calm - N/A   Clear
1:15 AM - - - N/A% - 10.0 mi North - - N/A   Clear
1:35 AM -2.2 °F - -11.2 °F 66% 30.45 in 10.0 mi Calm Calm - N/A   Clear
1:55 AM -5.8 °F -14.5 °F -9.4 °F 84% 30.44 in 10.0 mi SW 3.5 mph - N/A   Clear
2:15 AM -5.8 °F - -16.6 °F 60% 30.43 in 10.0 mi Calm Calm - N/A   Clear
2:35 AM -5.8 °F - -14.8 °F 65% 30.44 in 10.0 mi Calm Calm - N/A   Clear
2:55 AM -5.8 °F -14.5 °F -20.2 °F 50% 30.44 in 10.0 mi West 3.5 mph - N/A   Clear
3:15 AM -5.8 °F - -20.2 °F 50% 30.44 in 10.0 mi Calm Calm - N/A   Clear
3:35 AM -7.6 °F - -23.8 °F 45% 30.42 in 10.0 mi Calm Calm - N/A   Clear
3:55 AM -7.6 °F - -16.6 °F 65% 30.42 in 10.0 mi Calm Calm - N/A   Clear
4:15 AM -7.6 °F - - N/A% 30.40 in 10.0 mi Calm Calm - N/A   Clear
4:35 AM -7.6 °F -16.5 °F - N/A% 30.40 in 10.0 mi WSW 3.5 mph - N/A   Clear
4:55 AM -9.4 °F -18.6 °F - N/A% 30.39 in 10.0 mi West 3.5 mph - N/A   Clear
5:15 AM -9.4 °F -18.6 °F -25.6 °F 45% 30.39 in 10.0 mi SW 3.5 mph - N/A   Clear
5:35 AM -7.6 °F - -18.4 °F 59% 30.39 in 10.0 mi Calm Calm - N/A   Clear
5:55 AM -9.4 °F - -27.4 °F 41% 30.39 in 10.0 mi Calm Calm - N/A   Clear
6:15 AM -9.4 °F -18.6 °F -25.6 °F 45% 30.39 in 10.0 mi West 3.5 mph - N/A   Clear
6:35 AM -9.4 °F -18.6 °F - N/A% 30.38 in 10.0 mi WSW 3.5 mph - N/A   Clear
6:55 AM -5.8 °F - - N/A% 30.38 in 9.0 mi Calm Calm - N/A   Clear
7:15 AM -0.4 °F - -25.6 °F 30% 30.38 in 9.0 mi Calm Calm - N/A   Clear
7:35 AM 5.0 °F -2.1 °F -4.0 °F 66% 30.39 in 10.0 mi SW 3.5 mph - N/A   Clear
7:55 AM 10.4 °F - -20.2 °F 24% 30.38 in 10.0 mi Calm Calm - N/A   Clear
8:15 AM 12.2 °F - -5.8 °F 45% 30.38 in 10.0 mi Calm Calm - N/A   Clear
8:35 AM 10.4 °F - -5.8 °F 48% 30.38 in 10.0 mi Calm Calm - N/A   Clear
8:55 AM 19.4 °F 12.8 °F -0.4 °F 42% 30.38 in 10.0 mi WSW 4.6 mph - N/A   Clear
9:15 AM 26.6 °F 16.2 °F -0.4 °F 31% 30.37 in 10.0 mi SW 11.5 mph - N/A   Clear
9:35 AM 26.6 °F 17.5 °F 1.4 °F 34% 30.36 in 10.0 mi SW 9.2 mph - N/A   Clear
9:55 AM 28.4 °F 19.7 °F 1.4 °F 31% 30.34 in 10.0 mi WSW 9.2 mph - N/A   Clear
10:15 AM 28.4 °F 22.2 °F 3.2 °F 34% 30.34 in 10.0 mi West 5.8 mph - N/A   Clear
10:35 AM 30.2 °F 24.3 °F 3.2 °F 32% 30.32 in 10.0 mi SW 5.8 mph - N/A   Clear
10:55 AM 33.8 °F 28.6 °F 8.6 °F 35% 30.32 in 10.0 mi SSW 5.8 mph - N/A   Clear
11:15 AM 33.8 °F 25.3 °F 10.4 °F 38% 30.31 in 10.0 mi SW 11.5 mph - N/A   Clear
11:35 AM 33.8 °F 27.0 °F 8.6 °F 35% 30.31 in 10.0 mi South 8.1 mph - N/A   Clear
11:55 AM 33.8 °F 26.4 °F 10.4 °F 38% 30.29 in 10.0 mi South 9.2 mph - N/A   Clear
12:15 PM 33.8 °F 27.0 °F 12.2 °F 41% 30.27 in 10.0 mi SW 8.1 mph - N/A   Clear
12:35 PM 33.8 °F 25.3 °F 10.4 °F 38% 30.27 in 10.0 mi SSW 11.5 mph 18.4 mph N/A   Clear
12:55 PM 35.6 °F 27.5 °F 12.2 °F 38% 30.24 in 10.0 mi SSW 11.5 mph 18.4 mph N/A   Clear
1:15 PM 35.6 °F 28.0 °F 15.8 °F 44% 30.23 in 10.0 mi SSW 10.4 mph 16.1 mph N/A   Clear
1:35 PM 35.6 °F 29.2 °F 14.0 °F 41% 30.21 in 10.0 mi South 8.1 mph - N/A   Clear
1:55 PM 35.6 °F 32.8 °F 12.2 °F 38% 30.19 in 10.0 mi SE 3.5 mph - N/A   Clear
2:15 PM 35.6 °F 31.7 °F 12.2 °F 38% 30.18 in 10.0 mi SSW 4.6 mph - N/A   Clear
2:35 PM 35.6 °F 29.9 °F 15.8 °F 44% 30.16 in 10.0 mi South 6.9 mph - N/A   Clear
2:55 PM 35.6 °F 30.7 °F 15.8 °F 44% 30.16 in 10.0 mi South 5.8 mph - N/A   Clear
3:15 PM 35.6 °F 30.7 °F 15.8 °F 44% 30.15 in 10.0 mi South 5.8 mph - N/A   Clear
3:35 PM 35.6 °F 29.2 °F 14.0 °F 41% 30.13 in 10.0 mi SSW 8.1 mph - N/A   Clear
3:55 PM 35.6 °F 29.2 °F 14.0 °F 41% 30.13 in 10.0 mi SSW 8.1 mph - N/A   Clear
4:15 PM 35.6 °F 29.9 °F 14.0 °F 41% 30.12 in 10.0 mi SSW 6.9 mph - N/A   Clear
4:35 PM 33.8 °F 28.6 °F 12.2 °F 41% 30.12 in 10.0 mi SSW 5.8 mph - N/A   Clear
4:55 PM 33.8 °F 28.6 °F 15.8 °F 48% 30.11 in 10.0 mi South 5.8 mph - N/A   Clear
5:15 PM 33.8 °F 29.6 °F 15.8 °F 48% 30.11 in 10.0 mi South 4.6 mph - N/A   Clear
5:35 PM 32.0 °F 28.7 °F 17.6 °F 55% 30.10 in 10.0 mi SE 3.5 mph - N/A   Clear
5:55 PM 28.4 °F 23.3 °F 15.8 °F 59% 30.11 in 10.0 mi SSE 4.6 mph - N/A   Clear
6:15 PM 28.4 °F 23.3 °F 15.8 °F 59% 30.10 in 10.0 mi SSE 4.6 mph - N/A   Clear
6:35 PM 28.4 °F 23.3 °F 15.8 °F 59% 30.09 in 10.0 mi SSE 4.6 mph - N/A   Clear
6:55 PM 26.6 °F 22.6 °F 17.6 °F 69% 30.09 in 10.0 mi South 3.5 mph - N/A   Clear
7:15 PM 24.8 °F - 19.4 °F 80% 30.08 in 10.0 mi Calm Calm - N/A   Partly Cloudy
7:35 PM 23.0 °F - 17.6 °F 80% 30.07 in 10.0 mi Calm Calm - N/A   Mostly Cloudy
7:55 PM 21.2 °F 16.4 °F 12.2 °F 68% 30.07 in 10.0 mi South 3.5 mph - N/A   Mostly Cloudy
8:15 PM 19.4 °F - 12.2 °F 74% 30.05 in 10.0 mi Calm Calm - N/A   Clear
8:35 PM 21.2 °F - 19.4 °F 93% 30.05 in 10.0 mi Calm Calm - N/A   Clear
8:55 PM 19.4 °F - 8.6 °F 63% 30.04 in 10.0 mi Calm Calm - N/A   Scattered Clouds
9:15 PM 19.4 °F - 8.6 °F 63% 30.04 in 10.0 mi Calm Calm - N/A   Partly Cloudy
9:35 PM 17.6 °F - 17.6 °F 100% 30.03 in 10.0 mi Calm Calm - N/A   Clear
9:55 PM 17.6 °F - -0.4 °F 45% 30.02 in 10.0 mi Calm Calm - N/A   Clear
10:15 PM 15.8 °F - 1.4 °F 53% 30.00 in 10.0 mi Calm Calm - N/A   Clear
10:35 PM 15.8 °F - 15.8 °F 100% 29.99 in 10.0 mi Calm Calm - N/A   Scattered Clouds
10:55 PM 19.4 °F - 1.4 °F 46% 29.98 in 10.0 mi Calm Calm - N/A   Overcast
11:15 PM 21.2 °F - 21.2 °F 100% 29.97 in 10.0 mi Calm Calm - N/A   Overcast
11:35 PM 21.2 °F - 1.4 °F 42% 29.96 in 10.0 mi Calm Calm - N/A   Overcast
11:55 PM 21.2 °F - 21.2 °F 100% 29.95 in 10.0 mi Calm Calm - N/A   Mostly Cloudy